[Date Prev][Date Next][Thread Prev][Thread Next] - [Date Index][Thread Index][Author Index]
2 Line ISS Keps 5-1
- Subject: [sarex] 2 Line ISS Keps 5-1
- From: "Dave Larsen PhD" <doc@xxxxxxxxxxx>
- Date: Sat, 1 May 2004 02:21:26 -0700
ISS
1 25544U 98067A 04122.14491838 .00028465 00000-0 24446-3 0 6813
2 25544 51.6284 205.5233 0011207 87.0397 3.9641 15.69051154310939
----
Via the sarex mailing list at AMSAT.ORG courtesy of AMSAT-NA.
To unsubscribe, send "unsubscribe sarex" to Majordomo@amsat.org
AMSAT Home